[[{"header":{"parameterUnit":"m.s-1","parameterCategory":1,"la1":30.2991,"la2":30.254,"lo1":-89.0895,"lo2":-89.0444,"dy":0.0017,"dx":0.0017,"nx":28,"ny":28,"refTime":"2024-05-10T03:00:00:Z","depth":0,"parameterNumber":2,"parameterNumberName":"U-component_of_WINDS"},"data":[0,0,0,0,0,0,0,0,0,0,0,0,0,0,0,0,0,0,0,0,0,0,0,0,0,0,0,0,0,0,0,0,0,0,0,0,0,0,0,0,0,0,0,0,0,0,0,0,0,0,0,0,0,0,0,0,0,0,-2.9423,-2.9423,0,-2.9412,-2.9411,-2.9411,-2.9332,-2.933,-2.9328,-2.9326,-2.9315,-2.9317,-2.9318,0,0,0,0,0,0,0,0,0,0,0,0,0,-2.9378,-2.9379,-2.9423,-2.9423,-2.9423,-2.9412,-2.9411,-2.9411,-2.9332,-2.933,-2.9327,-2.9325,-2.9315,-2.9317,-2.9318,0,0,0,0,0,0,0,0,0,0,0,0,0,-2.9385,-2.938,-2.9423,-2.9382,-2.9378,-2.9412,-2.9411,-2.9411,-2.9333,-2.933,-2.9327,-2.9324,-2.9314,-2.9316,-2.9319,-2.9391,0,0,-2.9326,-2.9327,0,0,0,0,0,0,0,0,-2.9385,-2.9387,-2.9388,-2.9385,-2.9381,-2.937,-2.9391,-2.9404,-2.9333,-2.935,-2.9326,-2.9323,-2.9336,-2.9336,-2.9341,-2.939,-2.939,-2.9326,-2.9327,-2.9328,-2.9329,0,0,0,0,0,0,0,-2.9385,-2.9387,-2.9419,-2.9388,-2.9384,-2.9365,-2.9362,-2.9394,-2.936,-2.9348,-2.9343,-2.9342,-2.9333,-2.9339,-2.934,-2.939,-2.9326,-2.9328,-2.9329,-2.933,-2.9499,-2.9502,0,0,0,0,0,0,-2.939,-2.9387,-2.9419,-2.9418,-2.9376,-2.9368,-2.9365,-2.9377,-2.9359,-2.9353,-2.9345,-2.9339,-2.9336,-2.9337,-2.9339,-2.9423,-2.9328,-2.933,-2.9332,-2.9496,-2.95,-2.9504,0,0,0,0,0,0,-2.9389,-2.9393,-2.9419,-2.9401,-2.9403,-2.9372,-2.9385,-2.9378,-2.9383,-2.9356,-2.935,-2.9356,-2.9334,-2.9336,-2.9379,-2.9422,-2.9331,-2.9333,-2.9493,-2.9498,-2.9502,-2.9593,0,0,0,0,0,0,-2.9388,-2.9393,-2.942,-2.9402,-2.9404,-2.9459,-2.9387,-2.938,-2.9387,-2.9379,-2.9365,-2.936,-2.9332,-2.9376,-2.9381,-2.9423,-2.9335,-2.9489,-2.9495,-2.95,-2.9586,-2.96,-2.9612,0,0,0,0,0,-2.9387,-2.9446,-2.9422,-2.9426,-2.9437,-2.9462,-2.9463,-2.9429,-2.9391,-2.9418,-2.9401,-2.9361,-2.9416,-2.9381,-2.9386,-2.943,-2.9486,-2.9493,-2.95,-2.958,-2.9597,-2.9612,0,0,0,0,0,0,-2.9471,-2.9443,-2.9416,-2.9472,-2.947,-2.9449,-2.9482,-2.9448,-2.9457,-2.9449,-2.9406,-2.9404,-2.9454,-2.9446,-2.9407,-2.9499,-2.9444,-2.9453,-2.9503,-2.9519,-2.9532,-2.9534,-2.9337,0,0,0,0,0,-2.9496,-2.9518,-2.9493,-2.9544,-2.9545,-2.9514,-2.9523,-2.9497,-2.9493,-2.9492,-2.9478,-2.9476,-2.9493,-2.9505,-2.952,-2.9584,-2.958,-2.9616,-2.9629,-2.964,-2.9649,-2.9683,-2.9699,-2.9527,-2.9527,-2.9527,0,0,-2.9548,-2.9535,-2.9552,-2.9561,-2.9556,-2.9581,-2.9513,-2.9542,-2.956,-2.9496,-2.9536,-2.9526,-2.9521,-2.9576,-2.9599,-2.957,-2.9695,-2.9649,-2.9658,-2.966,-2.9692,-2.9708,-2.9723,-2.9531,-2.9531,-2.953,0,0,-2.9655,-2.9648,-2.969,-2.9687,-2.9681,-2.966,-2.967,-2.9654,-2.9645,-2.9684,-2.9637,-2.9658,-2.9688,-2.9687,-2.969,-2.9797,-2.9761,-2.9803,-2.9872,-2.9906,-2.992,-2.9932,-2.9971,-2.9986,-2.9811,-2.9811,-2.9811,0,-2.9721,-2.9755,-2.9716,-2.9748,-2.9754,-2.9697,-2.974,-2.9739,-2.9738,-2.9744,-2.9712,-2.9749,-2.9741,-2.9795,-2.9821,-2.9825,-2.9837,-2.9805,-2.9921,-2.9933,-2.9943,-2.998,-2.9995,-2.9816,-2.9816,-2.9815,-2.9815,0,-2.9837,-2.9862,-2.9897,-2.9897,-2.9907,-2.9944,-2.9911,-2.9926,-2.9898,-2.9881,-2.9922,-2.9911,-2.9923,-2.9933,-2.9907,-2.9984,-2.9966,-2.9928,-2.9872,-2.9965,-3.0,-3.0014,-2.9824,-2.9822,-2.9821,-2.9819,0,0,-2.9998,-2.9976,-2.999,-2.999,-2.9979,-2.9997,-3.0032,-3.0043,-3.0057,-3.0058,-3.0087,-3.0114,-3.0079,-3.0083,-3.0056,-3.0085,-3.0173,-3.0043,-3.0043,-3.0069,-3.0258,-3.0288,-3.0305,-3.0148,-3.015,-3.0152,-3.0259,0,-3.0102,-3.0161,-3.0127,-3.0191,-3.0214,-3.016,-3.019,-3.0187,-3.0172,-3.0189,-3.0172,-3.0192,-3.0144,-3.0146,-3.0173,-3.0156,-3.021,-3.0148,-3.0176,-3.0177,-3.018,-3.0322,-3.0354,-3.0455,-3.0272,-3.0274,-3.0276,0,-3.0232,-3.0239,-3.0305,-3.029,-3.0298,-3.0327,-3.0334,-3.0351,-3.0347,-3.0333,-3.0338,-3.0304,-3.0338,-3.0282,-3.0328,-3.0287,-3.0296,-3.029,-3.0293,-3.0295,-3.0233,-3.033,-3.0486,-3.0502,-3.0296,-3.0294,-3.0293,0,-3.0345,-3.037,-3.0413,-3.0415,-3.0398,-3.0419,-3.0413,-3.0406,-3.0415,-3.0421,-3.0427,-3.0438,-3.0444,-3.0453,-3.0423,-3.0384,-3.0474,-3.0415,-3.0465,-3.0466,-3.0488,-3.0487,-3.0649,-3.0491,-3.0491,-3.0491,-3.049,0,-3.0466,-3.0509,-3.0464,-3.0491,-3.0537,-3.0498,-3.0545,-3.0534,-3.0528,-3.0552,-3.0505,-3.0529,-3.0487,-3.0506,-3.0483,-3.0526,-3.0528,-3.0519,-3.0513,-3.0525,-3.0526,-3.0531,-3.0524,-3.0495,-3.0494,-3.0493,-3.0492,0,-3.06,-3.0572,-3.0615,-3.0596,-3.0592,-3.0628,-3.0611,-3.0635,-3.0616,-3.0648,-3.0653,-3.0623,-3.0644,-3.0614,-3.0632,-3.0616,-3.0676,-3.0658,-3.0677,-3.0673,-3.0725,-3.0721,-3.0897,-3.0919,-3.0746,-3.0748,-3.0749,0,-3.068,-3.0712,-3.0696,-3.0709,-3.0705,-3.0726,-3.0735,-3.0697,-3.0709,-3.0706,-3.0731,-3.0748,-3.0759,-3.0795,-3.0775,-3.0788,-3.0771,-3.0832,-3.0773,-3.0784,-3.0774,-3.0774,-3.0777,-3.0845,-3.0847,-3.0849,-3.085,0,-3.0826,-3.081,-3.0824,-3.0834,-3.0846,-3.0852,-3.0855,-3.0868,-3.0828,-3.0843,-3.0864,-3.0872,-3.089,-3.0908,-3.0916,-3.091,-3.0875,-3.0868,-3.0881,-3.0894,-3.0905,-3.0901,-3.0712,-3.0865,-3.0863,-3.0862,-3.0861,-3.0861,-3.0936,-3.0962,-3.0955,-3.0973,-3.0971,-3.0975,-3.0997,-3.0981,-3.0997,-3.1009,-3.0985,-3.1012,-3.1006,-3.1014,-3.1012,-3.1033,-3.1006,-3.1024,-3.1029,-3.1035,-3.1044,-3.09,-3.1034,-3.1033,-3.1033,-3.1033,-3.1032,0,-3.108,-3.1073,-3.109,-3.1095,-3.111,-3.1073,-3.1074,-3.1089,-3.1113,-3.1111,-3.1123,-3.1147,-3.1164,-3.1146,-3.1159,-3.1179,-3.1163,-3.1184,-3.1183,-3.1183,-3.1065,-3.1054,-3.1197,-3.1197,-3.1197,-3.1197,-3.1197,-3.1197,-3.1157,-3.12,-3.1184,-3.1225,-3.1218,-3.1243,-3.1247,-3.1251,-3.1249,-3.1278,-3.1291,-3.1279,-3.1271,-3.1284,-3.1298,-3.1292,-3.13,-3.1327,-3.1316,-3.1207,-3.1191,-3.1176,-3.1165,-3.1329,-3.1329,-3.1432,-3.1433,-3.1434]},{"header":{"parameterUnit":"m.s-1","parameterCategory":1,"la1":30.2991,"la2":30.254,"lo1":-89.0895,"lo2":-89.0444,"dy":0.0017,"dx":0.0017,"nx":28,"ny":28,"refTime":"2024-05-10T03:00:00:Z","depth":0,"parameterNumber":3,"parameterNumberName":"V-component_of_WINDS"},"data":[0,0,0,0,0,0,0,0,0,0,0,0,0,0,0,0,0,0,0,0,0,0,0,0,0,0,0,0,0,0,0,0,0,0,0,0,0,0,0,0,0,0,0,0,0,0,0,0,0,0,0,0,0,0,0,0,0,0,-3.9935,-3.9935,0,-3.9913,-3.9912,-3.9912,-3.9867,-3.9866,-3.9866,-3.9865,-3.9842,-3.9842,-3.9842,0,0,0,0,0,0,0,0,0,0,0,0,0,-3.9941,-3.9941,-3.9935,-3.9935,-3.9935,-3.9913,-3.9912,-3.9912,-3.9867,-3.9866,-3.9865,-3.9864,-3.9842,-3.9842,-3.9842,0,0,0,0,0,0,0,0,0,0,0,0,0,-3.993,-3.9941,-3.9935,-3.991,-3.9907,-3.9913,-3.9912,-3.9912,-3.9868,-3.9866,-3.9865,-3.9864,-3.9842,-3.9842,-3.9843,-3.9871,0,0,-3.9844,-3.9844,0,0,0,0,0,0,0,0,-3.9931,-3.993,-3.9914,-3.9912,-3.9909,-3.9891,-3.9906,-3.9898,-3.9868,-3.9883,-3.9865,-3.9863,-3.986,-3.9858,-3.9857,-3.987,-3.9869,-3.9844,-3.9844,-3.9844,-3.9844,0,0,0,0,0,0,0,-3.9932,-3.9931,-3.9926,-3.9914,-3.9911,-3.99,-3.9897,-3.9904,-3.9879,-3.9881,-3.9878,-3.9876,-3.9858,-3.9857,-3.9856,-3.9869,-3.9844,-3.9844,-3.9844,-3.9844,-3.9905,-3.9906,0,0,0,0,0,0,-3.9936,-3.9932,-3.9927,-3.9926,-3.9917,-3.9901,-3.9897,-3.9898,-3.9879,-3.9874,-3.9877,-3.9874,-3.9857,-3.9856,-3.9855,-3.9888,-3.9844,-3.9844,-3.9844,-3.9903,-3.9905,-3.9907,0,0,0,0,0,0,-3.9937,-3.9936,-3.9928,-3.9928,-3.9926,-3.9902,-3.9903,-3.9899,-3.9897,-3.9875,-3.9871,-3.9881,-3.9856,-3.9855,-3.9868,-3.9886,-3.9844,-3.9845,-3.9902,-3.9904,-3.9906,-3.9953,0,0,0,0,0,0,-3.9937,-3.9937,-3.9947,-3.9928,-3.9926,-3.9941,-3.9905,-3.9899,-3.9898,-3.9894,-3.9877,-3.9874,-3.9855,-3.9867,-3.9868,-3.9886,-3.9845,-3.99,-3.9903,-3.9905,-3.995,-3.9957,-3.9963,0,0,0,0,0,-3.9937,-3.9961,-3.9948,-3.9947,-3.9939,-3.9942,-3.994,-3.9918,-3.99,-3.991,-3.9896,-3.9874,-3.9884,-3.9869,-3.9869,-3.9888,-3.9899,-3.9902,-3.9905,-3.9947,-3.9955,-3.9963,0,0,0,0,0,0,-3.9982,-3.9958,-3.9943,-3.9962,-3.9954,-3.9934,-3.9947,-3.9928,-3.9925,-3.9921,-3.9894,-3.9891,-3.9907,-3.9899,-3.9882,-3.9915,-3.9888,-3.9891,-3.992,-3.9928,-3.9934,-3.9936,-3.9845,0,0,0,0,0,-3.9995,-3.9999,-3.9978,-3.9996,-3.9993,-3.9971,-3.9971,-3.9955,-3.9946,-3.9943,-3.9929,-3.9922,-3.9923,-3.9925,-3.9925,-3.9948,-3.9945,-3.9961,-3.9968,-3.9973,-3.9977,-3.9989,-3.9996,-3.9917,-3.9917,-3.9917,0,0,-4.002,-4.0007,-4.0011,-4.0005,-3.9997,-4.0003,-3.9968,-3.9975,-3.9979,-3.9944,-3.9955,-3.9945,-3.9935,-3.9954,-3.9961,-3.9947,-3.9998,-3.9977,-3.9982,-3.9982,-3.9993,-4.0001,-4.0007,-3.9919,-3.9919,-3.9919,0,0,-4.0068,-4.0059,-4.0074,-4.0067,-4.0055,-4.004,-4.0044,-4.0027,-4.0019,-4.003,-4.0004,-4.0008,-4.0011,-4.0006,-4.0003,-4.005,-4.003,-4.0051,-4.0084,-4.0097,-4.0103,-4.0109,-4.0126,-4.0133,-4.0055,-4.0055,-4.0055,0,-4.0101,-4.0108,-4.0084,-4.0093,-4.0091,-4.0059,-4.0074,-4.0068,-4.0058,-4.0058,-4.0042,-4.0046,-4.0036,-4.0053,-4.0065,-4.0064,-4.0068,-4.0053,-4.0104,-4.0109,-4.0114,-4.0131,-4.0137,-4.0057,-4.0057,-4.0057,-4.0057,0,-4.0149,-4.0155,-4.0168,-4.0159,-4.0158,-4.017,-4.0148,-4.0151,-4.0135,-4.0122,-4.0134,-4.0122,-4.0119,-4.0122,-4.0106,-4.0137,-4.0129,-4.0109,-4.0082,-4.0125,-4.014,-4.0146,-4.0061,-4.006,-4.0059,-4.0059,0,0,-4.0226,-4.0203,-4.0209,-4.0204,-4.019,-4.0194,-4.0204,-4.0202,-4.0205,-4.0199,-4.0208,-4.0212,-4.0194,-4.0191,-4.0174,-4.0185,-4.0224,-4.0164,-4.0163,-4.0176,-4.0259,-4.0274,-4.0282,-4.0211,-4.0212,-4.0213,-4.026,0,-4.0272,-4.0289,-4.0267,-4.0289,-4.0294,-4.0264,-4.0274,-4.0266,-4.0254,-4.0257,-4.0244,-4.0247,-4.0223,-4.0221,-4.0231,-4.0218,-4.0241,-4.0214,-4.0219,-4.022,-4.0223,-4.0289,-4.0305,-4.035,-4.0265,-4.0266,-4.0267,0,-4.0327,-4.0324,-4.0347,-4.0331,-4.0333,-4.0342,-4.0338,-4.0341,-4.0332,-4.0323,-4.032,-4.03,-4.031,-4.0283,-4.0297,-4.028,-4.0281,-4.0275,-4.0276,-4.0276,-4.0246,-4.0292,-4.0364,-4.0371,-4.0276,-4.0275,-4.0275,0,-4.0382,-4.0383,-4.0397,-4.0394,-4.0376,-4.0383,-4.0376,-4.0366,-4.0366,-4.0363,-4.0363,-4.0362,-4.0361,-4.036,-4.0341,-4.0323,-4.0357,-4.0329,-4.035,-4.0351,-4.0359,-4.0359,-4.0433,-4.0359,-4.0359,-4.0359,-4.0359,0,-4.0435,-4.0451,-4.0421,-4.043,-4.0446,-4.0421,-4.0438,-4.0428,-4.0419,-4.0426,-4.04,-4.0406,-4.038,-4.0384,-4.0369,-4.0383,-4.0383,-4.0376,-4.0372,-4.0378,-4.0379,-4.0379,-4.0376,-4.0361,-4.036,-4.036,-4.036,0,-4.0499,-4.048,-4.0493,-4.0475,-4.0471,-4.0484,-4.0469,-4.0476,-4.0463,-4.0472,-4.0472,-4.0452,-4.0455,-4.0435,-4.0435,-4.0425,-4.0447,-4.0437,-4.045,-4.0447,-4.0471,-4.0469,-4.0547,-4.0557,-4.0477,-4.0477,-4.0478,0,-4.0535,-4.0546,-4.0529,-4.0532,-4.0526,-4.053,-4.053,-4.0507,-4.0508,-4.0499,-4.0508,-4.0509,-4.0509,-4.0516,-4.0501,-4.0501,-4.0492,-4.0519,-4.0492,-4.0498,-4.0493,-4.0493,-4.0494,-4.0525,-4.0526,-4.0527,-4.0528,0,-4.0601,-4.0591,-4.0592,-4.059,-4.059,-4.0588,-4.0583,-4.0587,-4.0561,-4.0564,-4.0567,-4.0567,-4.0568,-4.0569,-4.0567,-4.056,-4.054,-4.0536,-4.0542,-4.0549,-4.0556,-4.0553,-4.0467,-4.0535,-4.0534,-4.0534,-4.0533,-4.0533,-4.0652,-4.066,-4.065,-4.0652,-4.0647,-4.0643,-4.065,-4.0637,-4.0639,-4.0637,-4.0623,-4.063,-4.0621,-4.0615,-4.061,-4.0615,-4.0602,-4.0609,-4.0611,-4.0614,-4.0618,-4.0555,-4.0615,-4.0614,-4.0614,-4.0614,-4.0614,0,-4.0717,-4.0709,-4.0711,-4.0706,-4.0708,-4.0688,-4.0683,-4.0686,-4.0691,-4.0685,-4.0685,-4.069,-4.0692,-4.0677,-4.0677,-4.0684,-4.0675,-4.0685,-4.0684,-4.0683,-4.0629,-4.0625,-4.0692,-4.0692,-4.0692,-4.0692,-4.0692,-4.0692,-4.0751,-4.0764,-4.0753,-4.0764,-4.0756,-4.0762,-4.076,-4.0757,-4.0752,-4.0758,-4.076,-4.075,-4.0741,-4.074,-4.0741,-4.0737,-4.0738,-4.0752,-4.0745,-4.0695,-4.0687,-4.068,-4.0676,-4.0752,-4.0752,-4.0798,-4.0798,-4.0799]}]]